Regional Weather Roundup
Issued by NWS Jackson, KY

Home | Current Version | Previous Version | Text Only | Print | Product List | Glossary On
Versions: 1 2 3 4 5 6 7 8 9 10 11 12 13 14 15 16 17 18 19 20 21 22 23 24 25 26
000
ASUS43 KJKL 241110
RWRJKL

EAST KENTUCKY HOURLY WEATHER ROUNDUP
NATIONAL WEATHER SERVICE JACKSON KY
700 AM EDT MON APR 24 2017

NOTE: "FAIR" INDICATES FEW OR NO CLOUDS BELOW 12,000 FEET WITH
NO SIGNIFICANT WEATHER AND/OR OBSTRUCTIONS TO VISIBILITY.

* THESE REPORTS ARE NOT UNDER NWS QUALITY CONTROL AND MAY NOT
  REPORT WEATHER SUCH AS PRECIPITATION AND FOG.

KYZ079-080-083-085-087-088-110-112-115-119-120-241200
...EASTERN KENTUCKY...

CITY           SKY/WX    TMP DP  RH WIND       PRES   REMARKS
JACKSON        CLEAR     48  47  96 VRB3      29.86R
LONDON         CLOUDY    52  48  86 VRB3      29.85R
SOMERSET*      CLOUDY    50  50 100 E6        29.86R
MONTICELLO*    CLOUDY    53  51  93 NW3       29.86R
WILLIAMSBURG*  CLOUDY    50  50 100 E5        29.84S
MIDDLESBORO*   CLOUDY    52  52 100 CALM      29.84S
HARLAN APT*    CLOUDY    52  48  87 CALM      29.84S
PIKE CO APT*   CLOUDY    48  48 100 NE5       29.87S
BIG SANDY APT* CLOUDY    49  49 100 NE7       29.87F
MOREHEAD APT*  CLOUDY    52  46  82 E6G15     29.90R
ASHLAND*       CLOUDY    54  48  82 CALM      29.88S
$$

KYZ035-036-041-042-044-050-067-078-099-241200
...CENTRAL KENTUCKY...

CITY           SKY/WX    TMP DP  RH WIND       PRES   REMARKS
MT STERLING*   MOCLDY    52  46  82 E12       29.89R
FLEMING/MASON* CLOUDY    55  40  56 E12       29.90S
DANVILLE*      CLOUDY    50  46  87 CALM      29.87R
LEXINGTON      CLOUDY    56  43  61 NE9       29.87R
FRANKFORT      CLOUDY    57  43  59 N9        29.86S
LOUISVILLE     PTCLDY    53  41  63 N6        29.87S
LEBANON*         N/A     54  46  76 NE3       29.86S
GLASGOW*       CLOUDY    53  49  86 NE3       29.84S
BOWLING GREEN  CLOUDY    54  51  90 N5        29.85S
$$

KYZ091>093-OHZ055-061-077-WVZ005-015-034-035-042-241200
...SOUTHERN OHIO/WEST VIRGINIA...

CITY           SKY/WX    TMP DP  RH WIND       PRES   REMARKS
COVINGTON      PTCLDY    50  37  61 NE9       29.92R
COLUMBUS       PTCLDY    46  35  65 NE6       29.97R
DAYTON         PTCLDY    43  34  70 N8        29.97S
WILMINGTON     CLEAR     43  38  82 NE12      29.93R
HUNTINGTON     CLOUDY    52  47  83 NE7       29.88S
CHARLESTON     CLOUDY    51  48  89 E5        29.90R
PINEVILLE*     CLOUDY    49  47  94 MISG      29.92F
BECKLEY        LGT RAIN  46  43  89 E10       29.90R
BLUEFIELD      CLOUDY    44  42  93 E9        29.90S
LOGAN CO APT*  CLOUDY    48  48 100 CALM      29.89R
$$

VAZ002-007-008-TNZ017-027-036-066-071-241200
...SOUTHWEST VIRGINIA/EAST TENNESSEE...

CITY           SKY/WX    TMP DP  RH WIND       PRES   REMARKS
WISE*          FOG       46  46 100 CALM      29.88R VSB 3/4
JONESVILLE*      N/A     46  46 100 CALM      29.85S
ABINGDON*      MOCLDY    49  46  89 E9        29.85R
BRISTOL        CLOUDY    49  47  93 NW5       29.83R
MORRISTOWN*    PTSUNNY   52  50  93 NE6       29.81R
SEVIERVILLE*   CLOUDY    50  50 100 CALM      29.80F
KNOXVILLE      MOCLDY    52  49  89 NE6       29.79S
LAFOLLETTE*    CLOUDY    54  52  94 CALM      29.85R
OAK RIDGE      MOCLDY    54  49  83 VRB3      29.81F
CROSSVILLE     CLOUDY    51  49  92 NE7       29.82R
NASHVILLE      CLOUDY    55  52  89 N8        29.83R
$$

...KEY TO REMARKS...
VSB - VISIBILITY IN MILES
WCI - WIND CHILL INDEX
HX  - HEAT INDEX

$$




USA.gov is the U.S. government's official web portal to all federal, state and local government web resources and services.